Date String (YYYY-MM-DD hh:mm:ss) UTC,Instrument flags,absolute air pressure of the measurement (hPa),sample flow rate (lpm),inlet stack bypass flow (lpm),air temperature of the measurement (°C),ambient temperature measured by the external sensor (°C),aerosol sample conditioner tube jacket temperature (°C),OPC LED temperature (°C),internal box temperature (°C),relative humidity of the measurement (%),span deviation,mass concentration of particles derived from Lorenz-Mie calculation of OPC scattering (μg/m³),mass concentration of particles derived from Lorenz-Mie calculation of OPC scattering (μg/m³),mass concentration of particles derived from Lorenz-Mie calculation of OPC scattering (μg/m³)
DateTimeUTC,F1_M11,P_M11,Q1_M11,Q2_M11,T1_M11,T2_M11,T3_M11,T4_M11,T5_M11,U1_M11,ZSPAN_M11,X2_M11,X0_M11,X1_M11
2024-03-25 23:00:00,SystemResetWarning,0818.3,5.01,000.00,019.2,018.3,000.0,027.8,020.9,13.8,0000.0,0007.47,0009.57,0007.34
2024-03-25 23:01:00,SystemResetWarning,0818.2,4.99,000.00,019.1,018.3,000.0,027.8,020.9,13.6,0000.0,0007.51,0009.63,0007.36
2024-03-25 23:02:00,SystemResetWarning,0818.3,4.99,000.00,019.1,018.3,000.0,027.8,020.8,13.6,0000.0,0007.53,0009.69,0007.36
2024-03-25 23:03:00,SystemResetWarning,0818.3,5.01,000.00,019.1,018.2,000.0,027.8,020.8,13.3,0000.0,0007.53,0009.76,0007.34
2024-03-25 23:04:00,SystemResetWarning,0818.3,5.01,000.00,019.1,018.2,000.0,027.8,020.8,13.5,0000.0,0007.57,0009.95,0007.37
2024-03-25 23:05:00,SystemResetWarning,0818.3,5.00,000.00,019.1,018.2,000.0,027.7,020.8,13.8,0000.0,0007.57,0009.96,0007.37
2024-03-25 23:06:00,SystemResetWarning,0818.3,5.00,000.00,019.1,018.2,000.0,027.7,020.8,13.9,0000.0,0007.55,0009.64,0007.35
2024-03-25 23:07:00,SystemResetWarning,0818.3,4.99,000.00,019.1,018.2,000.0,027.7,020.8,14.0,0000.0,0007.53,0009.59,0007.36
2024-03-25 23:08:00,SystemResetWarning,0818.3,4.99,000.00,019.0,018.1,000.0,027.7,020.7,14.0,0000.0,0007.55,0009.82,0007.37
2024-03-25 23:09:00,SystemResetWarning,0818.3,5.00,000.00,019.0,018.1,000.0,027.7,020.7,14.0,0000.0,0007.59,0009.97,0007.38
2024-03-25 23:10:00,SystemResetWarning,0818.3,5.01,000.00,019.0,018.1,000.0,027.7,020.7,13.8,0000.0,0007.60,0010.01,0007.38
2024-03-25 23:11:00,SystemResetWarning,0818.2,5.00,000.00,019.0,018.1,000.0,027.7,020.7,13.8,0000.0,0007.58,0009.98,0007.38
2024-03-25 23:12:00,SystemResetWarning,0818.2,4.99,000.00,019.0,018.1,000.0,027.7,020.7,13.7,0000.0,0007.54,0009.90,0007.36
2024-03-25 23:13:00,SystemResetWarning,0818.3,4.99,000.00,019.0,018.1,000.0,027.7,020.7,13.7,0000.0,0007.53,0009.89,0007.36
2024-03-25 23:14:00,SystemResetWarning,0818.3,5.01,000.00,019.0,018.1,000.0,027.7,020.7,13.7,0000.0,0007.54,0009.85,0007.38
2024-03-25 23:15:00,SystemResetWarning,0818.3,5.01,000.00,019.0,018.1,000.0,027.6,020.7,13.8,0000.0,0007.52,0010.27,0007.38
2024-03-25 23:16:00,SystemResetWarning,0818.2,5.00,000.00,018.9,018.0,000.0,027.6,020.7,13.8,0000.0,0007.52,0010.32,0007.40
2024-03-25 23:17:00,SystemResetWarning,0818.2,4.99,000.00,018.9,018.0,000.0,027.6,020.6,13.9,0000.0,0007.53,0010.32,0007.41
2024-03-25 23:18:00,SystemResetWarning,0818.2,4.99,000.00,018.9,017.9,000.0,027.6,020.6,14.1,0000.0,0007.53,0009.92,0007.40
2024-03-25 23:19:00,SystemResetWarning,0818.2,5.00,000.00,018.9,017.9,000.0,027.6,020.6,14.0,0000.0,0007.52,0009.61,0007.40
2024-03-25 23:20:00,SystemResetWarning,0818.2,5.00,000.00,018.9,017.9,000.0,027.6,020.6,14.3,0000.0,0007.50,0009.47,0007.41
2024-03-25 23:21:00,SystemResetWarning,0818.2,5.01,000.00,018.9,017.9,000.0,027.6,020.6,14.2,0000.0,0007.50,0009.45,0007.43
2024-03-25 23:22:00,SystemResetWarning,0818.2,5.01,000.00,018.8,017.9,000.0,027.6,020.6,14.2,0000.0,0007.51,0009.56,0007.44
2024-03-25 23:23:00,SystemResetWarning,0818.2,4.99,000.00,018.8,017.9,000.0,027.6,020.6,14.2,0000.0,0007.52,0009.56,0007.44
2024-03-25 23:24:00,SystemResetWarning,0818.2,4.99,000.00,018.8,017.9,000.0,027.5,020.5,14.1,0000.0,0007.53,0009.56,0007.45
2024-03-25 23:25:00,SystemResetWarning,0818.2,5.02,000.00,018.8,017.8,000.0,027.5,020.5,14.0,0000.0,0007.52,0009.52,0007.46
2024-03-25 23:26:00,SystemResetWarning,0818.2,5.00,000.00,018.8,017.8,000.0,027.5,020.4,14.2,0000.0,0007.54,0009.55,0007.47
2024-03-25 23:27:00,SystemResetWarning,0818.2,4.99,000.00,018.8,017.7,000.0,027.5,020.4,14.0,0000.0,0007.54,0009.02,0007.46
2024-03-25 23:28:00,SystemResetWarning,0818.2,4.99,000.00,018.7,017.6,000.0,027.5,020.3,13.8,0000.0,0007.51,0008.87,0007.42
2024-03-25 23:29:00,SystemResetWarning,0818.2,5.00,000.00,018.7,017.6,000.0,027.5,020.3,14.1,0000.0,0007.53,0009.68,0007.40
2024-03-25 23:30:00,SystemResetWarning,0818.1,5.01,000.00,018.7,017.5,000.0,027.4,020.3,14.1,0000.0,0007.54,0010.07,0007.41
2024-03-25 23:31:00,SystemResetWarning,0818.1,5.01,000.00,018.6,017.5,000.0,027.4,020.3,14.2,0000.0,0007.54,0010.18,0007.41
2024-03-25 23:32:00,SystemResetWarning,0818.1,5.00,000.00,018.6,017.5,000.0,027.4,020.3,14.6,0000.0,0007.56,0010.25,0007.42
2024-03-25 23:33:00,SystemResetWarning,0818.1,4.99,000.00,018.6,017.5,000.0,027.4,020.3,14.7,0000.0,0007.57,0010.31,0007.43
2024-03-25 23:34:00,SystemResetWarning,0818.1,4.99,000.00,018.6,017.5,000.0,027.4,020.3,14.4,0000.0,0007.60,0010.27,0007.45
2024-03-25 23:35:00,SystemResetWarning,0818.1,5.00,000.00,018.5,017.5,000.0,027.3,020.2,14.3,0000.0,0007.63,0010.36,0007.46
2024-03-25 23:36:00,SystemResetWarning,0818.1,5.00,000.00,018.5,017.5,000.0,027.3,020.2,14.3,0000.0,0007.63,0010.37,0007.47
2024-03-25 23:37:00,SystemResetWarning,0818.1,5.01,000.00,018.5,017.5,000.0,027.3,020.2,14.4,0000.0,0007.64,0010.44,0007.46
2024-03-25 23:38:00,SystemResetWarning,0818.1,5.01,000.00,018.5,017.5,000.0,027.3,020.2,14.5,0000.0,0007.65,0010.45,0007.47
2024-03-25 23:39:00,SystemResetWarning,0818.1,5.00,000.00,018.5,017.5,000.0,027.3,020.2,14.5,0000.0,0007.68,0010.52,0007.53
2024-03-25 23:40:00,SystemResetWarning,0818.1,4.99,000.00,018.5,017.6,000.0,027.3,020.2,14.3,0000.0,0007.70,0010.37,0007.56
2024-03-25 23:41:00,SystemResetWarning,0818.1,5.00,000.00,018.5,017.6,000.0,027.2,020.2,14.1,0000.0,0007.69,0009.67,0007.56
2024-03-25 23:42:00,SystemResetWarning,0818.2,5.00,000.00,018.5,017.6,000.0,027.2,020.2,14.2,0000.0,0007.70,0009.70,0007.55
2024-03-25 23:43:00,SystemResetWarning,0818.2,4.99,000.00,018.5,017.6,000.0,027.2,020.2,14.2,0000.0,0007.69,0009.66,0007.53
2024-03-25 23:44:00,SystemResetWarning,0818.1,5.00,000.00,018.5,017.6,000.0,027.2,020.2,14.2,0000.0,0007.66,0009.61,0007.50
2024-03-25 23:45:00,SystemResetWarning,0818.2,5.00,000.00,018.5,017.6,000.0,027.2,020.2,14.5,0000.0,0007.64,0009.62,0007.48
2024-03-25 23:46:00,SystemResetWarning,0818.2,5.01,000.00,018.5,017.5,000.0,027.2,020.2,14.4,0000.0,0007.64,0009.70,0007.48
2024-03-25 23:47:00,SystemResetWarning,0818.2,5.00,000.00,018.5,017.5,000.0,027.2,020.2,14.5,0000.0,0007.63,0009.75,0007.47
2024-03-25 23:48:00,SystemResetWarning,0818.2,5.01,000.00,018.4,017.5,000.0,027.2,020.2,14.5,0000.0,0007.63,0010.11,0007.46
2024-03-25 23:49:00,SystemResetWarning,0818.2,5.00,000.00,018.4,017.5,000.0,027.2,020.2,14.4,0000.0,0007.62,0010.46,0007.46
2024-03-25 23:50:00,SystemResetWarning,0818.2,5.00,000.00,018.4,017.5,000.0,027.1,020.2,14.3,0000.0,0007.61,0010.55,0007.43
2024-03-25 23:51:00,SystemResetWarning,0818.2,4.99,000.00,018.4,017.6,000.0,027.1,020.2,14.6,0000.0,0007.59,0010.32,0007.40
2024-03-25 23:52:00,SystemResetWarning,0818.2,5.00,000.00,018.4,017.6,000.0,027.1,020.2,14.8,0000.0,0007.56,0010.30,0007.37
2024-03-25 23:53:00,SystemResetWarning,0818.3,5.01,000.00,018.4,017.6,000.0,027.1,020.2,14.5,0000.0,0007.54,0010.17,0007.36
2024-03-25 23:54:00,SystemResetWarning,0818.3,5.01,000.00,018.4,017.6,000.0,027.1,020.2,14.4,0000.0,0007.50,0010.08,0007.33
2024-03-25 23:55:00,SystemResetWarning,0818.3,4.99,000.00,018.4,017.7,000.0,027.1,020.2,14.4,0000.0,0007.48,0010.05,0007.30
2024-03-25 23:56:00,SystemResetWarning,0818.3,4.99,000.00,018.4,017.7,000.0,027.1,020.2,14.4,0000.0,0007.43,0010.38,0007.25
2024-03-25 23:57:00,SystemResetWarning,0818.3,5.00,000.00,018.4,017.7,000.0,027.1,020.2,14.3,0000.0,0007.36,0010.27,0007.19
2024-03-25 23:58:00,SystemResetWarning,0818.3,5.01,000.00,018.4,017.7,000.0,027.1,020.2,14.3,0000.0,0007.31,0010.19,0007.13
2024-03-25 23:59:00,SystemResetWarning,0818.3,5.01,000.00,018.4,017.6,000.0,027.1,020.2,14.3,0000.0,0007.29,0009.86,0007.10
